User: anonymous   Login
Location: Unspecified
(0.0000°N, 0.0000°E)
Time: 06:48:12
(UTC+00:00)
Language:

ONEWEB-0533 - Orbit

View from above orbital plane
View from above orbital plane
View from above satellite
View from above satellite

Ground track
Ground track

The orbit is defined by the following mean orbital elements,

1 55141U          26145.28130859 +.00000000 +00000-0 +42197-3 0 00009
2 55141  87.8962 355.2259 0001958  83.2110 276.9241 13.12441139    07
Epoch (UTC): 25 May 2026 06:45:05
Eccentricity: 0.0001958
inclination: 87.8962°
perigee height: 1212 km
apogee height: 1215 km
right ascension of ascending node: 355.2259°
argument of perigee: 83.2110°
revolutions per day: 13.12441139
mean anomaly at epoch: 276.9241°

The dashed part of the orbit path shows where the satellite is in the earth's shadow,  

DLR